Flag for Germany Weather past 2 weeks in Schorndorf, Baden-Württemberg, Germany

Now
55 °F

Overcast.


Feels Like: 55 °F
Forecast: 52 / 73 °F
Wind: 1 mph from East

Location: Stuttgart-Echterdingen

Current Time: Aug 28, 2014 at 9:28:48 AM

Latest Report: Aug 28, 2014 at 9:00 AM


Visibility: 13 mi

Pressure: 30.09 "Hg

Humidity: 100%

Dew point: 55 °F

Location of SchorndorfLocation

Historic Weather in Schorndorf — Graph

°F

Schorndorf temperature yesterday

Maximum temperature yesterday: 66 °F (at 6:00 PM)
Minimum temperature yesterday: 58 °F (at 11:00 PM)
Average temperature yesterday: 60 °F

Past Weeks' High & Low Weather Summary

 TemperatureHumidityPressure
High69 °F (Aug 17, 2:00 PM)100% (Aug 28, 8:00 AM)30.18 "Hg (Aug 28, 8:00 AM)
Low45 °F (Aug 25, 6:00 AM)43% (Aug 22, 1:00 PM)29.67 "Hg (Aug 13, 5:00 PM)
Average58 °F76%29.97 "Hg
* Reported Aug 13 8:00 AM — Aug 28 8:00 AM, Schorndorf, Weather by CustomWeather, © 2014

Note: Actual official high and low records may vary slightly from our data, if they occured in-between our weather recording intervals... More about our weather records

Advertising

Schorndorf weather history for previous 24 hours

 ConditionsComfort  
Time TempWeatherWind HumidityBarometerVisibility
8:00 AM
Aug 28
53 °FFog.No wind100%30.09 "Hg7 mi
7:00 AM52 °FFog.No wind99%30.09 "Hg1 mi
6:00 AM51 °FFog.1 mph99%30.08 "Hg0 mi
4:00 AM53 °FFog.1 mph97%30.08 "Hg4 mi
3:00 AM53 °FPassing clouds.1 mph95%30.08 "Hg37 mi
2:00 AM55 °FPassing clouds.1 mph94%30.08 "Hg43 mi
1:00 AM55 °FOvercast.1 mph94%30.08 "Hg43 mi
12:00 AM56 °FPassing clouds.1 mph93%30.07 "Hg43 mi
11:00 PM
Aug 27
58 °FOvercast.1 mph88%30.07 "Hg43 mi
10:00 PM59 °FPassing clouds.1 mph87%30.06 "Hg43 mi
9:00 PM60 °FPassing clouds.1 mph80%30.05 "Hg43 mi
8:00 PM64 °FPartly sunny.1 mph65%30.03 "Hg43 mi
7:00 PM66 °FScattered clouds.1 mph58%30.02 "Hg43 mi
6:00 PM66 °FPassing clouds.2 mph62%30.01 "Hg43 mi
5:00 PM66 °FScattered clouds.1 mph59%30.01 "Hg43 mi
4:00 PM65 °FPartly sunny.1 mph65%30.02 "Hg43 mi
3:00 PM63 °FOvercast.2 mph71%30.02 "Hg43 mi
2:00 PM61 °FOvercast.2 mph78%30.02 "Hg43 mi
1:00 PM60 °FOvercast.2 mph83%30.01 "Hg40 mi
12:00 PM59 °FOvercast.2 mph87%30.01 "Hg37 mi
11:00 AM58 °FLow clouds.2 mph87%29.98 "Hg25 mi
9:00 AM59 °FLow clouds.2 mph94%29.93 "Hg11 mi
Weather by CustomWeather, © 2014

See weather overviewHow to use our weather pages